Vertical_Velocity
20 21 23 21 10 4 3 5 5 5 6 6 4 3 1 1 1 1 1 1 0 -0 -0 -0 0 1 1 1 1 1 1 1 1 0 0 -0 0 0 0 0 0 0 0 0 1 1 1 0 0 0 0 0 1 1 1 1 2 1 1 1 0 -0 -0 0 -1 -1 -0 -0 -1
21 23 25 20 10 6 7 9 8 7 6 5 2 1 1 1 0 0 0 0 -0 -0 -0 -0 0 1 1 1 1 1 1 1 0 0 0 0 0 0 0 -0 -0 0 0 0 1 1 1 0 0 0 0 0 1 2 1 1 1 1 0 -0 -0 -0 -0 -0 -1 -1 -0 -0 -1
26 24 20 10 7 9 11 11 9 7 5 2 1 1 1 0 -0 -0 -0 -0 -0 -0 0 0 0 0 1 1 1 1 1 1 0 0 0 0 0 0 0 -0 -0 -0 0 0 0 0 0 0 0 0 0 1 1 1 0 -0 0 0 -0 -1 -1 -0 0 -0 -0 -0 -0 -0 -1
30 23 15 10 11 12 12 10 7 4 2 1 1 1 0 -0 -0 -1 -0 -0 0 0 0 0 0 1 1 1 1 1 1 1 0 0 0 0 0 0 -0 -0 -0 -0 0 0 0 0 0 0 0 0 0 0 1 0 -0 -1 -0 0 -0 -1 -0 0 0 -0 -1 -0 -0 -1 -1
29 22 17 16 16 13 10 6 4 2 1 0 0 0 -0 -0 -1 -0 -0 0 0 0 1 1 1 1 1 1 1 1 1 1 0 0 0 0 0 0 0 0 0 0 0 1 1 0 0 0 0 0 0 0 0 0 -0 -0 0 -0 -0 -0 0 -0 -0 -1 -1 -1 -0 -0 -1
26 21 19 17 15 11 7 4 2 1 0 -0 -0 -0 -0 -0 -0 -0 0 0 1 1 1 1 1 1 1 1 1 1 1 1 1 1 0 0 0 0 0 0 0 0 1 1 1 0 0 0 -0 -0 -0 0 0 -0 -0 0 0 -0 -1 -0 -1 -0 0 -0 -1 -0 1 0 -0
23 17 13 11 9 6 4 3 2 1 -0 -1 -1 -1 -1 -0 0 0 1 1 1 2 2 2 2 2 2 2 1 1 1 1 1 1 1 1 1 1 1 1 1 1 1 1 1 0 -0 -0 -0 -1 -1 -0 -0 -0 -0 1 0 -0 -0 -1 -1 0 1 0 -0 0 1 0 -0
20 12 5 4 4 4 3 3 2 0 -1 -2 -2 -1 -1 0 1 1 2 2 2 2 3 3 3 2 2 2 2 1 1 1 1 1 1 1 1 1 1 1 1 1 1 1 1 0 -0 0 0 -0 -0 -0 0 0 0 1 1 0 -0 -0 -1 -0 1 0 -0 -0 0 0 0
15 7 2 4 5 4 2 1 -0 -1 -2 -2 -2 -1 -0 1 2 2 3 3 3 3 3 3 3 2 2 2 1 1 1 1 1 1 1 1 1 1 1 1 1 1 1 1 1 1 0 0 0 0 0 1 1 1 1 1 1 0 -0 -0 -1 -1 -1 -0 0 0 1 1 1
8 5 3 5 4 2 0 -1 -2 -2 -2 -2 -1 -0 1 2 2 3 3 3 3 3 3 2 2 2 1 1 1 1 1 1 1 1 1 1 1 1 1 1 1 1 1 1 1 0 0 0 0 0 0 1 1 1 0 1 1 -0 -1 -1 -0 -0 -1 -0 0 1 1 1 1
4 5 3 2 1 -0 -2 -3 -3 -2 -2 -1 -0 1 2 3 3 3 3 3 2 2 2 2 1 1 1 1 1 0 0 0 0 0 0 0 0 0 0 0 1 1 1 0 0 0 0 0 0 0 0 0 0 0 0 -0 0 -0 -1 -1 -0 -0 -0 -0 0 1 1 1 1
3 4 2 -0 -1 -2 -3 -4 -3 -3 -1 -0 1 2 3 3 3 3 3 2 2 2 1 1 1 1 1 0 0 0 0 -0 -0 -0 -0 -0 0 0 0 0 0 0 0 0 0 0 0 0 0 0 0 -0 0 0 -0 -0 -0 -0 -0 -0 -0 0 0 -0 0 0 1 1 0
5 4 1 -1 -2 -2 -3 -4 -3 -2 -0 1 3 3 3 3 3 3 2 2 1 1 1 1 1 0 0 0 -0 -0 -0 -0 -0 -0 -0 -0 -0 0 0 0 1 1 1 1 1 1 0 0 0 0 -0 -0 -0 -0 -0 -0 -0 -0 -0 -0 -0 0 0 -0 -0 -0 0 0 -0
6 2 -1 -2 -2 -2 -3 -3 -2 -1 1 2 3 3 3 3 2 2 2 1 1 0 -0 -0 -0 -0 -0 -0 -0 -0 -0 -0 -0 -0 -0 -0 0 0 0 0 1 1 1 1 1 1 0 0 0 0 -0 -0 -0 -0 -0 -0 -0 -0 -0 -0 -0 -0 -0 -0 -0 -0 -0 -0 -0
4 -0 -2 -2 -2 -2 -2 -2 -1 0 2 3 3 3 3 2 2 1 1 0 -0 -1 -2 -2 -1 -1 -1 -1 -1 -1 -1 -1 -0 -0 -0 0 0 0 0 0 1 1 1 1 1 0 0 0 0 -0 -0 -0 -1 -0 -0 -0 -0 -0 0 0 0 -0 -0 -1 -1 -1 -0 0 0
2 -1 -2 -1 -2 -2 -2 -1 0 1 2 3 3 3 2 2 1 1 0 -0 -1 -2 -2 -2 -2 -2 -1 -1 -1 -1 -1 -0 -0 -0 0 0 0 0 0 0 0 1 1 0 0 0 0 0 -0 -0 -0 -1 -1 -1 -0 -0 -0 0 0 0 -0 -0 -1 -1 -1 -0 -0 0 0
-0 -1 -2 -2 -1 -1 -0 1 2 2 3 3 3 2 2 1 1 0 -0 -0 -1 -1 -1 -1 -1 -1 -1 -1 -0 -0 -0 -0 -0 -0 0 0 0 0 0 0 0 0 0 0 0 0 -0 -0 -0 -1 -1 -1 -1 -1 -0 -0 -0 -0 -0 -0 -0 -0 -1 -1 -1 -0 -0 -0 -1
-1 -1 -2 -2 -1 0 1 2 2 2 2 2 1 1 1 1 1 0 0 -0 -0 -0 -0 -0 -0 -0 0 0 0 -0 -0 -0 -0 -0 -0 -0 -0 0 0 0 0 0 0 0 -0 -0 -1 -1 -1 -1 -1 -1 -1 -1 -0 -0 -0 -0 -1 -1 -1 -0 -0 -1 -1 -1 -1 -1 -1
-1 -1 -1 -0 1 2 2 2 2 1 1 0 0 0 1 1 1 0 0 0 0 0 0 1 1 1 1 0 0 0 0 -0 -0 -0 -0 -0 -0 0 0 0 1 0 0 -0 -0 -1 -1 -1 -1 -1 -1 -1 -1 -1 -1 -0 -0 -0 -0 -0 -0 -0 -1 -1 -1 -1 -1 -1 -1
-0 0 1 2 3 3 3 2 1 0 -0 -0 -0 0 1 1 1 1 1 1 1 1 1 1 1 1 1 0 0 0 -0 -0 -0 -0 -0 -0 0 0 1 1 0 0 -0 -1 -1 -2 -2 -1 -1 -1 -1 -1 -1 -1 -1 -0 -0 -0 -0 -0 -0 -1 -1 -1 -1 -1 -2 -2 -1
2 2 3 3 3 3 2 2 1 0 0 0 0 1 1 1 1 1 1 1 1 1 1 0 0 0 0 0 0 -0 -0 -0 -0 -0 -0 0 0 1 1 0 -0 -1 -1 -2 -2 -2 -1 -1 -1 -0 -0 -0 -0 -0 -0 -0 -0 -0 -0 -1 -1 -1 -1 -1 -1 -1 -1 -1 -1
3 3 3 3 2 2 1 1 1 1 1 1 1 1 1 1 1 1 1 0 0 0 -0 -0 -0 -0 -0 -0 -0 -0 -0 0 0 0 0 1 1 0 -0 -0 -1 -2 -2 -2 -2 -1 -1 -0 -0 -0 -0 -0 -0 -0 -0 0 -0 -0 -1 -1 -1 -1 -1 -1 -1 -1 -0 -0 -0
2 2 2 1 1 1 1 0 1 1 1 1 1 1 0 0 0 0 0 0 -0 -0 -0 -1 -0 -0 -0 -0 -0 -0 0 0 0 1 1 1 0 -0 -1 -1 -2 -2 -2 -1 -1 -0 -0 -0 -0 -0 -0 0 -0 -0 -0 -0 -0 -1 -1 -1 -1 -1 -0 -0 -0 0 0 0 0
1 1 0 0 0 0 0 0 1 1 1 1 1 1 0 0 0 0 0 -0 -0 -1 -1 -1 -1 -0 -0 -0 -0 -0 0 0 1 1 0 -0 -1 -1 -1 -1 -1 -1 -1 -0 -0 0 0 -0 -0 -0 -0 -0 -0 -0 -0 -0 -0 -0 -0 -0 -0 -0 0 1 1 1 1 1 0
-0 -0 -0 -0 -0 -0 -0 0 0 1 1 1 0 0 0 0 0 -0 -0 -0 -1 -1 -1 -1 -0 -0 -0 -0 -0 -0 -0 0 0 -0 -0 -1 -1 -1 -1 -1 -1 -0 -0 0 0 0 -0 -0 -0 -0 -0 -0 -0 -0 0 0 0 0 0 0 0 0 0 1 1 1 1 0 0
0 -0 -0 -0 -0 0 0 0 0 0 0 0 -0 -0 -0 -0 -0 -0 -1 -1 -1 -1 -1 -1 -1 -1 -1 -1 -1 -0 -0 -0 -0 -0 -1 -1 -1 -1 -1 -0 -0 0 0 0 0 0 -0 -0 -0 -0 -0 -0 0 0 1 1 1 1 0 -0 -0 -0 -0 -0 -0 -0 -0 -0 -0
1 1 1 1 1 1 1 1 0 0 0 -0 -0 -0 -0 -1 -1 -1 -1 -1 -1 -1 -1 -1 -1 -1 -1 -1 -1 -0 -0 -0 -0 -0 -0 -0 -0 -0 -0 0 0 0 0 0 0 0 0 0 0 0 0 0 1 1 1 1 1 0 0 -0 -1 -1 -1 -1 -1 -1 -1 -1 -1
1 1 1 1 1 1 1 1 0 0 -0 -0 -0 -1 -1 -1 -1 -1 -1 -1 -1 -1 -1 -1 -1 -1 -1 -1 -0 -0 0 0 0 0 -0 -0 -0 -0 -0 0 0 0 0 0 0 0 0 0 0 0 0 1 1 1 1 0 -0 -0 -1 -1 -1 -1 -1 -1 -1 -2 -2 -2 -2
1 1 1 1 1 1 1 1 0 -0 -0 -0 -1 -1 -1 -1 -1 -1 -1 -1 -1 -1 -1 -1 -1 -1 -0 -0 -0 0 0 0 0 0 0 0 0 -0 -0 0 0 0 0 0 0 0 0 1 1 1 1 1 0 0 -0 -0 -1 -1 -1 -1 -1 -1 -1 -1 -1 -1 -2 -2 -2
1 1 1 1 1 1 1 0 -0 -0 -0 -1 -1 -1 -1 -1 -2 -1 -1 -1 -1 -1 -1 -1 -0 -0 -0 -0 0 0 0 0 0 0 0 0 0 0 0 0 0 0 0 1 1 1 1 1 1 1 0 -0 -0 -1 -1 -1 -1 -1 -1 -1 -1 -1 -1 -1 -1 -1 -2 -2 -2
1 1 1 1 1 1 0 0 0 -0 -0 -1 -1 -1 -2 -2 -2 -2 -2 -2 -1 -1 -1 -1 -0 -0 -0 0 0 1 0 0 0 0 0 0 0 0 0 0 1 1 1 1 1 1 1 1 1 0 -0 -1 -1 -1 -1 -1 -1 -1 -1 -1 -1 -1 -1 -1 -1 -1 -1 -1 -1
1 1 0 0 1 0 0 0 0 -0 -0 -1 -1 -2 -2 -2 -2 -2 -1 -1 -1 -1 -0 -0 -0 0 0 1 1 1 1 0 0 0 0 0 0 1 1 1 1 1 1 1 1 1 0 0 -0 -0 -1 -1 -1 -1 -1 -1 -1 -1 -1 -1 -1 -1 -1 -1 -1 -1 -1 -1 -1
1 0 -0 0 0 0 0 0 -0 -0 -1 -1 -1 -1 -1 -1 -1 -1 -0 -0 -0 -0 0 0 0 1 1 1 1 1 1 0 0 0 0 1 1 1 1 1 1 1 1 1 0 -0 -0 -0 -0 -1 -1 -1 -1 -1 -1 -1 -1 -1 -1 -1 -1 -1 -1 -1 -1 -1 -1 -1 -1
1 0 0 0 0 1 0 0 -0 -0 -1 -1 -1 -1 -1 -1 -0 -0 0 0 0 0 0 1 1 1 1 1 1 1 0 0 1 1 1 1 1 1 1 0 0 0 0 -0 -0 -0 -1 -1 -1 -1 -1 -1 -1 -1 -1 -1 -1 -1 -1 -1 -1 -1 -1 -1 -1 -1 -1 -1 -1
1 0 0 0 1 1 0 0 -0 -0 -1 -1 -1 -1 -1 -0 -0 0 0 1 1 1 1 1 1 1 1 1 1 1 1 1 1 1 1 0 0 0 0 -0 -0 -0 -0 -0 -1 -1 -1 -1 -1 -1 -1 -1 -1 -1 -1 -1 -1 -1 -1 -1 -1 -1 -0 -0 -0 -1 -1 -1 -1
0 0 0 0 0 0 0 0 -0 -0 -1 -1 -1 -1 -0 -0 -0 0 1 1 1 1 1 1 1 1 1 1 0 1 1 1 1 0 0 -0 -0 -0 -0 -0 -1 -1 -1 -1 -1 -1 -1 -1 -1 -1 -1 -1 -1 -1 -1 -1 -1 -1 -1 -1 -0 -0 -0 -0 -1 -1 -1 -1 -1
0 0 0 0 0 0 0 -0 -0 -1 -1 -1 -1 -0 -0 -0 0 1 1 1 1 1 1 1 1 1 1 0 0 1 1 1 0 -0 -0 -0 -0 -0 -0 -0 -0 -0 -1 -1 -1 -1 -1 -1 -1 -1 -1 -1 -1 -1 -1 -1 -1 -1 -0 -0 -0 -0 -0 -1 -1 -1 -1 -1 -1
0 0 0 0 0 0 0 -0 -0 -1 -1 -1 -0 -0 0 0 1 1 1 1 1 1 1 1 1 1 0 0 1 1 1 0 0 -0 -0 -0 -0 -0 -0 -0 -0 -1 -1 -1 -1 -1 -1 -1 -1 -1 -1 -1 -1 -1 -1 -1 -0 -0 -0 -0 -0 -1 -1 -1 -1 -1 -1 -1 -1
0 0 0 0 0 0 0 -0 -0 -0 -0 -0 0 0 1 1 1 1 1 1 1 1 1 1 0 0 0 1 1 1 1 0 0 0 -0 -0 -0 -0 -0 -0 -1 -1 -1 -1 -1 -1 -1 -1 -1 -1 -1 -1 -1 -1 -1 -0 -0 -0 -0 -1 -1 -1 -1 -1 -1 -1 -1 -1 -1
1 1 1 1 1 1 1 0 0 0 0 0 1 1 1 1 2 2 1 1 1 1 0 0 0 0 0 0 1 0 0 0 0 0 0 0 -0 -0 -0 -1 -1 -1 -1 -1 -0 -0 -0 -0 -0 -0 -1 -1 -1 -1 -0 -0 -0 -0 -1 -1 -1 -1 -1 -1 -1 -1 -1 -2 -2
1 1 1 1 1 1 1 1 1 1 1 1 1 1 1 2 2 2 1 1 1 1 0 0 -0 -0 -0 0 0 0 0 0 0 1 0 0 -0 -0 -0 -1 -1 -1 -1 -1 -0 -0 -0 -0 -0 -0 -1 -1 -0 -0 -0 -0 -0 -1 -1 -1 -1 -1 -1 -1 -1 -1 -1 -1 -1
Height
5684 5689 5694 5695 5694 5694 5695 5698 5700 5703 5706 5710 5712 5714 5717 5719 5722 5724 5726 5728 5729 5730 5731 5732 5733 5734 5735 5737 5738 5739 5740 5741 5742 5743 5743 5744 5744 5745 5746 5746 5747 5748 5749 5749 5750 5751 5751 5752 5752 5753 5753 5753 5753 5753 5753 5753 5753 5753 5753 5752 5752 5752 5751 5751 5750 5750 5749 5749 5748
5684 5689 5693 5693 5691 5691 5693 5696 5699 5702 5705 5708 5711 5713 5716 5718 5721 5723 5724 5726 5727 5728 5729 5730 5732 5733 5734 5735 5737 5738 5739 5740 5740 5741 5742 5742 5743 5744 5744 5745 5745 5746 5747 5748 5748 5749 5749 5750 5750 5750 5751 5751 5751 5751 5751 5751 5751 5751 5751 5750 5750 5750 5749 5749 5748 5748 5747 5746 5745
5686 5689 5690 5688 5688 5690 5693 5695 5699 5702 5704 5707 5709 5712 5715 5717 5719 5721 5723 5724 5725 5727 5728 5729 5730 5732 5733 5734 5735 5736 5737 5738 5739 5740 5740 5741 5741 5742 5743 5743 5744 5744 5745 5746 5746 5747 5747 5748 5748 5748 5749 5749 5749 5749 5749 5749 5749 5749 5749 5749 5748 5748 5747 5747 5746 5745 5744 5744 5743
5686 5686 5685 5685 5688 5690 5693 5695 5698 5701 5703 5706 5709 5711 5714 5716 5718 5720 5721 5723 5724 5725 5727 5728 5729 5731 5732 5733 5734 5735 5736 5737 5738 5738 5739 5739 5740 5740 5741 5742 5742 5743 5743 5744 5744 5745 5745 5746 5746 5746 5747 5747 5747 5747 5747 5747 5747 5747 5747 5746 5746 5745 5745 5744 5744 5743 5743 5742 5741
5684 5683 5683 5685 5688 5690 5693 5695 5697 5700 5702 5705 5708 5710 5712 5714 5716 5718 5720 5722 5723 5724 5726 5727 5728 5729 5731 5732 5733 5734 5735 5736 5736 5737 5738 5738 5739 5739 5739 5740 5741 5741 5742 5742 5743 5743 5743 5744 5744 5744 5744 5745 5745 5745 5745 5745 5745 5745 5744 5744 5744 5743 5743 5742 5742 5741 5740 5740 5739
5681 5681 5683 5685 5688 5690 5692 5694 5696 5699 5701 5704 5706 5709 5711 5713 5715 5717 5719 5720 5722 5723 5725 5726 5727 5729 5730 5731 5732 5733 5734 5734 5735 5736 5736 5737 5737 5738 5738 5739 5739 5739 5740 5740 5741 5741 5741 5742 5742 5742 5743 5743 5743 5743 5743 5743 5743 5743 5742 5742 5742 5741 5741 5740 5739 5739 5738 5737 5736
5679 5681 5683 5685 5688 5690 5692 5694 5696 5698 5701 5703 5705 5708 5710 5712 5714 5716 5718 5719 5721 5722 5724 5725 5727 5728 5729 5730 5731 5732 5733 5733 5734 5734 5735 5735 5736 5736 5737 5737 5738 5738 5739 5739 5739 5739 5740 5740 5740 5741 5741 5741 5741 5741 5741 5741 5741 5741 5740 5740 5739 5739 5739 5738 5737 5736 5736 5735 5734
5678 5680 5683 5685 5688 5690 5691 5693 5695 5698 5700 5702 5704 5707 5709 5711 5713 5715 5717 5718 5720 5721 5723 5724 5726 5727 5728 5729 5730 5731 5731 5732 5733 5733 5734 5734 5735 5735 5735 5736 5736 5737 5737 5738 5738 5738 5739 5739 5739 5739 5739 5739 5739 5739 5739 5739 5739 5739 5738 5738 5737 5737 5736 5735 5735 5734 5734 5733 5732
5678 5680 5683 5686 5688 5690 5691 5693 5695 5697 5699 5701 5704 5706 5708 5710 5712 5714 5716 5718 5719 5721 5722 5724 5725 5726 5727 5728 5729 5729 5730 5731 5731 5732 5733 5733 5733 5734 5734 5734 5735 5735 5736 5736 5736 5737 5737 5737 5737 5737 5737 5737 5737 5737 5737 5737 5737 5736 5736 5735 5735 5734 5734 5733 5733 5732 5731 5731 5730
5679 5681 5684 5686 5688 5689 5691 5693 5694 5696 5699 5701 5703 5705 5708 5709 5711 5713 5715 5717 5718 5720 5721 5722 5724 5725 5726 5727 5727 5728 5729 5729 5730 5730 5731 5731 5732 5732 5733 5733 5734 5734 5734 5734 5735 5735 5735 5735 5735 5735 5735 5735 5735 5735 5735 5735 5734 5734 5734 5733 5733 5732 5732 5731 5730 5730 5729 5729 5728
5679 5681 5684 5686 5688 5689 5691 5693 5694 5696 5698 5700 5703 5705 5707 5709 5711 5713 5714 5716 5717 5719 5720 5721 5723 5724 5724 5725 5726 5727 5727 5728 5729 5729 5729 5730 5730 5731 5731 5732 5732 5732 5733 5733 5733 5733 5733 5733 5734 5734 5733 5733 5733 5733 5733 5733 5732 5732 5732 5731 5731 5730 5730 5729 5729 5728 5728 5727 5726
5680 5682 5683 5685 5687 5689 5691 5693 5694 5696 5698 5700 5702 5704 5706 5708 5710 5712 5713 5715 5716 5718 5719 5720 5721 5722 5723 5724 5725 5725 5726 5726 5727 5728 5728 5729 5729 5729 5729 5730 5730 5730 5731 5731 5731 5731 5731 5732 5732 5732 5732 5731 5731 5731 5731 5731 5730 5730 5730 5729 5729 5729 5728 5728 5727 5726 5726 5725 5724
5679 5681 5683 5685 5687 5689 5691 5693 5694 5696 5698 5700 5702 5704 5706 5708 5709 5711 5713 5714 5715 5717 5718 5719 5720 5721 5722 5723 5723 5724 5724 5725 5725 5726 5726 5727 5727 5728 5728 5728 5729 5729 5729 5729 5729 5730 5730 5730 5730 5730 5730 5730 5729 5729 5729 5729 5729 5728 5728 5728 5727 5727 5726 5726 5725 5724 5724 5723 5722
5679 5680 5683 5685 5687 5689 5691 5692 5694 5696 5698 5699 5702 5704 5705 5707 5709 5710 5712 5713 5714 5716 5717 5718 5719 5720 5720 5721 5722 5722 5723 5724 5724 5724 5725 5725 5726 5726 5727 5727 5727 5728 5728 5728 5728 5728 5728 5728 5728 5728 5728 5728 5728 5728 5727 5727 5727 5727 5727 5726 5726 5725 5725 5724 5723 5722 5722 5721 5720
5677 5680 5683 5685 5687 5689 5690 5692 5694 5695 5697 5699 5701 5703 5705 5706 5708 5709 5711 5712 5714 5715 5716 5717 5718 5719 5719 5720 5720 5721 5722 5722 5723 5723 5724 5724 5724 5725 5725 5725 5726 5726 5726 5726 5727 5727 5727 5727 5727 5727 5726 5726 5726 5726 5726 5726 5725 5725 5725 5724 5724 5724 5723 5722 5721 5720 5720 5719 5718
5677 5680 5683 5684 5686 5688 5690 5692 5694 5695 5697 5699 5701 5703 5704 5706 5707 5709 5710 5712 5713 5714 5715 5716 5717 5717 5718 5719 5719 5720 5720 5721 5721 5722 5722 5723 5723 5724 5724 5724 5724 5725 5725 5725 5725 5725 5725 5725 5725 5725 5725 5725 5725 5725 5724 5724 5724 5724 5723 5723 5722 5721 5721 5720 5719 5719 5718 5717 5716
5678 5680 5682 5684 5686 5688 5689 5691 5693 5695 5697 5699 5701 5702 5704 5705 5707 5708 5709 5711 5712 5713 5714 5715 5715 5716 5717 5717 5718 5719 5719 5719 5720 5721 5721 5722 5722 5722 5723 5723 5723 5724 5724 5724 5724 5724 5724 5724 5724 5724 5724 5724 5723 5723 5723 5723 5722 5722 5721 5721 5720 5719 5719 5718 5717 5717 5716 5715 5714
5678 5679 5682 5684 5685 5687 5689 5691 5693 5695 5697 5699 5700 5702 5704 5705 5706 5707 5709 5709 5711 5712 5713 5714 5714 5715 5716 5716 5717 5717 5718 5718 5719 5719 5720 5720 5721 5721 5722 5722 5722 5722 5722 5723 5723 5723 5723 5722 5722 5722 5722 5722 5722 5721 5721 5721 5720 5720 5719 5719 5718 5718 5717 5716 5715 5714 5714 5713 5712
5677 5679 5681 5683 5685 5687 5689 5691 5693 5694 5696 5698 5700 5701 5703 5704 5705 5706 5707 5709 5709 5710 5711 5712 5713 5714 5714 5715 5716 5716 5717 5717 5718 5718 5719 5719 5719 5720 5720 5720 5721 5721 5721 5721 5721 5721 5721 5721 5721 5721 5720 5720 5720 5720 5719 5719 5719 5718 5718 5717 5717 5716 5715 5714 5713 5712 5712 5711 5710
5677 5679 5681 5683 5685 5687 5689 5690 5692 5694 5696 5698 5699 5700 5702 5703 5704 5705 5706 5707 5708 5709 5710 5711 5712 5713 5713 5714 5714 5715 5715 5716 5716 5717 5717 5718 5718 5719 5719 5719 5719 5719 5719 5719 5719 5719 5719 5719 5719 5719 5719 5719 5719 5719 5718 5718 5717 5717 5716 5715 5715 5714 5713 5712 5711 5710 5710 5709 5708
5677 5679 5681 5683 5685 5687 5689 5690 5692 5694 5695 5697 5698 5699 5701 5702 5703 5704 5705 5706 5707 5708 5709 5710 5711 5712 5712 5713 5714 5714 5714 5715 5715 5716 5716 5717 5717 5717 5718 5718 5718 5718 5718 5718 5718 5718 5718 5718 5718 5718 5718 5718 5717 5717 5717 5716 5716 5715 5714 5714 5713 5712 5711 5710 5709 5709 5708 5707 5706
5677 5679 5681 5683 5685 5686 5688 5690 5691 5693 5694 5696 5697 5699 5699 5701 5702 5703 5704 5705 5706 5707 5708 5709 5710 5710 5711 5712 5712 5713 5713 5714 5714 5714 5715 5715 5716 5716 5716 5716 5717 5717 5717 5717 5717 5717 5717 5717 5717 5717 5716 5716 5716 5715 5715 5714 5714 5713 5713 5712 5711 5710 5709 5709 5708 5707 5706 5705 5704
5678 5679 5681 5683 5684 5686 5688 5689 5691 5692 5694 5695 5696 5698 5699 5700 5701 5702 5703 5704 5705 5706 5707 5708 5709 5709 5710 5710 5711 5711 5712 5712 5713 5713 5714 5714 5714 5715 5715 5715 5715 5715 5715 5716 5716 5716 5716 5715 5715 5715 5715 5714 5714 5714 5713 5713 5712 5711 5711 5710 5709 5709 5708 5707 5706 5705 5704 5703 5702
5678 5680 5681 5683 5684 5686 5688 5689 5690 5692 5693 5694 5696 5697 5698 5699 5700 5701 5702 5703 5704 5705 5706 5707 5707 5708 5709 5709 5709 5710 5711 5711 5712 5712 5713 5713 5713 5714 5714 5714 5714 5714 5714 5714 5714 5714 5714 5714 5714 5713 5713 5713 5712 5712 5711 5711 5710 5709 5709 5708 5708 5707 5706 5705 5704 5704 5703 5701 5700
5678 5680 5681 5683 5684 5686 5687 5689 5690 5691 5693 5694 5695 5696 5697 5699 5699 5700 5701 5702 5703 5704 5705 5705 5706 5707 5707 5708 5708 5709 5709 5710 5710 5711 5711 5712 5712 5712 5713 5713 5713 5713 5713 5713 5713 5713 5712 5712 5712 5712 5711 5711 5710 5710 5709 5709 5708 5708 5707 5706 5706 5705 5704 5704 5703 5702 5700 5699 5698
5678 5679 5681 5682 5684 5685 5687 5688 5689 5690 5692 5693 5694 5695 5696 5698 5699 5699 5700 5701 5702 5703 5704 5704 5705 5705 5706 5706 5707 5708 5708 5709 5709 5710 5710 5710 5711 5711 5711 5711 5711 5711 5711 5711 5711 5711 5711 5710 5710 5710 5709 5709 5709 5708 5708 5707 5707 5706 5705 5704 5704 5703 5702 5702 5700 5699 5698 5697 5696
5677 5679 5680 5682 5683 5684 5686 5687 5688 5689 5691 5692 5693 5694 5695 5696 5698 5699 5699 5700 5701 5702 5702 5703 5704 5704 5705 5705 5706 5707 5707 5708 5708 5709 5709 5709 5709 5710 5710 5710 5710 5710 5710 5709 5709 5709 5709 5709 5709 5708 5708 5707 5707 5706 5706 5705 5705 5704 5703 5702 5702 5701 5700 5699 5698 5697 5696 5695 5694
5677 5678 5679 5681 5682 5684 5685 5686 5687 5689 5690 5691 5693 5694 5694 5695 5697 5698 5699 5699 5700 5701 5701 5702 5702 5703 5704 5704 5705 5705 5706 5707 5707 5708 5708 5708 5708 5708 5708 5709 5708 5708 5708 5708 5708 5708 5707 5707 5707 5706 5706 5705 5705 5704 5704 5703 5703 5702 5701 5700 5699 5699 5698 5697 5696 5695 5694 5694 5693
5676 5677 5679 5680 5681 5683 5684 5685 5687 5688 5689 5690 5692 5693 5694 5695 5696 5697 5697 5698 5699 5699 5700 5701 5701 5702 5703 5703 5704 5704 5705 5705 5706 5706 5706 5707 5707 5707 5707 5707 5707 5707 5707 5706 5706 5706 5706 5705 5705 5704 5704 5704 5703 5703 5702 5701 5700 5700 5699 5698 5698 5697 5696 5695 5694 5694 5693 5692 5691
5675 5676 5678 5679 5680 5682 5683 5685 5686 5687 5689 5689 5691 5692 5693 5694 5695 5695 5696 5697 5698 5699 5699 5699 5700 5701 5702 5702 5703 5704 5704 5704 5704 5705 5705 5705 5705 5705 5705 5705 5705 5705 5705 5705 5704 5704 5704 5704 5703 5703 5702 5702 5701 5700 5700 5699 5699 5698 5697 5696 5696 5695 5694 5694 5693 5692 5691 5691 5690
5674 5676 5677 5679 5680 5681 5683 5684 5685 5686 5688 5689 5690 5691 5692 5693 5694 5694 5695 5696 5697 5697 5698 5699 5699 5700 5701 5701 5702 5702 5703 5703 5703 5704 5704 5704 5704 5704 5704 5704 5704 5704 5703 5703 5703 5702 5702 5702 5701 5701 5700 5699 5699 5698 5698 5697 5696 5696 5695 5694 5694 5694 5693 5692 5692 5691 5690 5689 5689
5674 5675 5677 5678 5679 5681 5682 5683 5684 5685 5687 5688 5689 5690 5691 5692 5692 5693 5694 5694 5695 5696 5697 5697 5698 5699 5699 5700 5701 5701 5701 5702 5702 5702 5702 5702 5702 5702 5702 5702 5702 5702 5701 5701 5701 5700 5700 5700 5699 5699 5698 5698 5697 5696 5696 5695 5695 5694 5694 5693 5693 5692 5692 5691 5690 5690 5689 5688 5687
5674 5675 5676 5678 5679 5680 5681 5682 5684 5684 5686 5687 5688 5689 5689 5690 5691 5692 5693 5693 5694 5695 5696 5696 5697 5698 5699 5699 5699 5700 5700 5700 5700 5700 5700 5700 5700 5700 5700 5700 5700 5700 5699 5699 5699 5699 5698 5698 5698 5697 5696 5696 5695 5695 5694 5694 5693 5693 5692 5692 5691 5691 5690 5690 5689 5688 5688 5687 5686
5673 5674 5676 5677 5678 5679 5680 5682 5683 5684 5685 5686 5687 5688 5689 5689 5690 5691 5691 5692 5693 5694 5694 5695 5696 5697 5697 5698 5698 5698 5698 5699 5699 5699 5699 5699 5699 5699 5699 5698 5698 5698 5698 5697 5697 5697 5697 5696 5696 5695 5695 5694 5694 5693 5693 5692 5692 5691 5691 5691 5690 5689 5689 5689 5688 5687 5686 5685 5684
5673 5674 5675 5677 5678 5679 5680 5681 5682 5683 5684 5685 5686 5686 5687 5688 5689 5690 5690 5691 5692 5693 5693 5694 5694 5695 5695 5696 5696 5696 5697 5697 5697 5697 5697 5697 5697 5697 5697 5696 5696 5696 5696 5696 5695 5695 5695 5694 5694 5694 5693 5693 5692 5691 5691 5691 5690 5690 5690 5689 5689 5689 5688 5687 5686 5685 5684 5683 5682
5673 5674 5675 5676 5678 5679 5679 5680 5681 5682 5683 5684 5684 5685 5686 5687 5688 5689 5689 5690 5691 5691 5692 5693 5693 5694 5694 5694 5694 5694 5695 5695 5695 5695 5695 5695 5695 5695 5695 5695 5694 5694 5694 5694 5694 5694 5693 5693 5692 5692 5691 5691 5690 5690 5690 5689 5689 5689 5689 5688 5688 5687 5686 5686 5685 5684 5683 5681 5680
5673 5674 5675 5676 5677 5678 5679 5679 5680 5681 5682 5683 5684 5684 5685 5686 5687 5687 5688 5689 5689 5690 5691 5691 5692 5692 5692 5693 5693 5693 5693 5693 5693 5693 5693 5693 5693 5693 5694 5693 5693 5693 5693 5693 5692 5692 5692 5691 5691 5690 5690 5689 5689 5689 5689 5688 5688 5688 5688 5687 5686 5686 5685 5684 5683 5682 5681 5680 5679
5673 5674 5674 5675 5676 5677 5678 5679 5679 5680 5681 5682 5683 5684 5684 5685 5686 5686 5687 5688 5688 5689 5689 5690 5690 5690 5691 5691 5691 5691 5691 5692 5692 5692 5692 5692 5692 5692 5692 5692 5692 5691 5691 5691 5690 5690 5690 5689 5689 5689 5688 5688 5688 5688 5688 5687 5687 5687 5686 5686 5685 5684 5683 5682 5681 5680 5679 5678 5677
5672 5673 5674 5674 5675 5676 5677 5678 5678 5679 5680 5681 5682 5682 5683 5684 5684 5685 5686 5686 5687 5687 5688 5688 5689 5689 5689 5689 5689 5690 5690 5690 5690 5690 5690 5690 5690 5690 5690 5690 5690 5690 5689 5689 5689 5689 5688 5688 5687 5687 5687 5687 5687 5686 5686 5686 5686 5685 5685 5684 5684 5683 5682 5680 5679 5678 5677 5676 5675
5671 5672 5673 5674 5674 5675 5676 5677 5677 5678 5679 5680 5681 5681 5682 5683 5683 5684 5684 5685 5685 5686 5686 5687 5687 5687 5688 5688 5688 5688 5689 5689 5689 5689 5689 5689 5689 5689 5689 5689 5689 5688 5688 5687 5687 5687 5686 5686 5686 5686 5685 5685 5685 5685 5685 5685 5684 5684 5684 5683 5682 5681 5680 5679 5678 5677 5675 5674 5673
5670 5671 5672 5673 5673 5674 5675 5676 5677 5677 5678 5679 5679 5680 5681 5682 5682 5683 5683 5684 5684 5684 5685 5685 5685 5686 5686 5686 5687 5687 5687 5687 5687 5687 5687 5687 5687 5687 5687 5687 5687 5686 5686 5686 5685 5685 5685 5684 5684 5684 5684 5684 5684 5684 5684 5684 5683 5683 5682 5681 5680 5679 5679 5677 5676 5675 5674 5672 5671